Weather History for LGSM - April, 2013

Change the Weather History Date:

Monday, April 29, 2013

  Actual Average Record
Temperature  
Mean Temperature 72 °F -  
Max Temperature 84 °F 76 °F 84 °F (2013)
Min Temperature 59 °F 57 °F 48 °F (2008)
Cooling Degree Days 6    
Growing Degree Days 22 (Base 50)    
Moisture  
Dew Point 46 °F    
Average Humidity 37    
Maximum Humidity 67    
Minimum Humidity 20    
Precipitation  
Precipitation 0.00 in 0.02 in - ()
Sea Level Pressure  
Sea Level Pressure 30.06 in    
Wind  
Wind Speed 5 mph ()    
Max Wind Speed 9 mph    
Max Gust Speed -    
Visibility 6.0 miles    
Events      
Averages and records for this station are not official NWS values.
T = Trace of Precipitation, MM = Missing Value Source: Averaged Metar Reports

Daily Weather History Graph

Daily Weather History Graph

Search for Another Location

Airport or City:

Trip Planner

Search our weather history database for the weather conditions in past years. The results will help you decide how hot, cold, wet, or windy it might be!

Date:

Astronomy

Apr. 29, 2013 Rise Set
Actual Time 6:19 AM EEST 8:00 PM EEST
Civil Twilight 5:51 AM EEST 8:28 PM EEST
Nautical Twilight 5:17 AM EEST 9:02 PM EEST
Astronomical Twilight 4:41 AM EEST 9:38 PM EEST
Moon No Moon Rise 9:20 AM EEST (4/29)
Length of Visible Light 14h 37m
Length of Day
13h 41m
Waning Gibbous, 83% of the Moon is Illuminated
Apr 29
Waning Gibbous
May 2
Last Quarter
May 10
New
May 18
First Quarter
May 25
Full

Hourly Weather History & Observations

Time (EEST) Temp. Dew Point Humidity Pressure Visibility Wind Dir Wind Speed Gust Speed Precip Events Conditions
4:50 AM 60.8 °F 48.2 °F 63% 30.04 in - West 2.3 mph - N/A   Clear
5:20 AM 60.8 °F 48.2 °F 63% 30.04 in - South 2.3 mph - N/A   Clear
5:50 AM 59.0 °F 48.2 °F 67% 30.06 in - Variable 2.3 mph - N/A   Clear
6:20 AM 60.8 °F 48.2 °F 63% 30.06 in - Variable 3.5 mph - N/A   Clear
6:50 AM 62.6 °F 46.4 °F 55% 30.06 in - Variable 3.5 mph - N/A   Clear
7:20 AM 62.6 °F 46.4 °F 55% 30.06 in - ENE 4.6 mph - N/A   Clear
7:50 AM 64.4 °F 37.4 °F 37% 30.06 in - ENE 3.5 mph - N/A   Clear
8:20 AM 64.4 °F 37.4 °F 37% 30.06 in - ESE 2.3 mph - N/A   Clear
8:50 AM 68.0 °F 37.4 °F 33% 30.09 in - NNE 5.8 mph - N/A   Clear
9:00 AM 68 °F 38 °F 22% 30.10 in 6 mi NNE 5.8 mph - -   Clear
9:20 AM 69.8 °F 41.0 °F 35% 30.09 in - NNE 6.9 mph - N/A   Clear
9:50 AM 71.6 °F 37.4 °F 29% 30.09 in - North 9.2 mph - N/A   Clear
10:20 AM 73.4 °F 41.0 °F 31% 30.09 in - NNE 8.1 mph - N/A   Clear
10:50 AM 75.2 °F 39.2 °F 27% 30.09 in - NNE 8.1 mph - N/A   Clear
11:20 AM 77.0 °F 42.8 °F 29% 30.09 in - NNE 9.2 mph - N/A   Clear
11:50 AM 77.0 °F 46.4 °F 34% 30.09 in - ENE 5.8 mph - N/A   Clear
12:20 PM 77.0 °F 48.2 °F 36% 30.09 in - North 8.1 mph - N/A   Clear
12:50 PM 78.8 °F 50.0 °F 36% 30.09 in - North 9.2 mph - N/A   Clear
1:20 PM 82.4 °F 46.4 °F 28% 30.06 in - North 6.9 mph - N/A   Clear
1:50 PM 84.2 °F 46.4 °F 27% 30.06 in - North 8.1 mph - N/A   Clear
2:20 PM 84.2 °F 46.4 °F 27% 30.06 in - NNE 8.1 mph - N/A   Clear
2:50 PM 84.2 °F 50.0 °F 30% 30.06 in - NNE 8.1 mph - N/A   Clear
3:00 PM 84 °F 49 °F 20% 30.07 in 6 mi NNE 8.1 mph - -   Clear
3:20 PM 84.2 °F 50.0 °F 30% 30.06 in - NNE 8.1 mph - N/A   Clear
3:50 PM 84.2 °F 50.0 °F 30% 30.04 in - North 8.1 mph - N/A   Clear
4:20 PM 84.2 °F 50.0 °F 30% 30.04 in - North 8.1 mph - N/A   Clear
4:50 PM 84.2 °F 48.2 °F 29% 30.04 in - North 8.1 mph - N/A   Clear
5:20 PM 84.2 °F 50.0 °F 30% 30.04 in - North 8.1 mph - N/A   Clear
5:50 PM 84.2 °F 42.8 °F 23% 30.04 in - North 5.8 mph - N/A   Clear
6:20 PM 82.4 °F 44.6 °F 26% 30.04 in - Variable 3.5 mph - N/A   Clear
6:50 PM 82.4 °F 46.4 °F 28% 30.04 in - Calm Calm - N/A   Clear
7:20 PM 80.6 °F 48.2 °F 32% 30.04 in - Calm Calm - N/A   Clear
7:50 PM 78.8 °F 48.2 °F 34% 30.04 in - West 4.6 mph - N/A   Clear
8:20 PM 75.2 °F 53.6 °F 47% 30.04 in - Variable 4.6 mph - N/A   Clear
8:50 PM 71.6 °F 55.4 °F 57% 30.04 in - Calm Calm - N/A   Clear
9:00 PM 72 °F 56 °F 46% 30.05 in 6 mi Calm Calm - -   Clear